[[{"header":{"parameterUnit":"m.s-1","parameterCategory":1,"la1":30.2991,"la2":30.254,"lo1":-89.0895,"lo2":-89.0444,"dx":0.0017,"dy":0.0017,"nx":28,"ny":28,"refTime":"2023-01-14T03:00:00:Z","depth":0,"parameterNumber":2,"parameterNumberName":"U-component_of_WINDS"},"data":[0,0,0,0,0,0,0,0,0,0,0,0,0,0,0,0,0,0,0,0,0,0,0,0,0,0,0,0,0,0,0,0,0,0,0,0,0,0,0,0,0,0,0,0,0,0,0,0,0,0,0,0,0,0,0,0,0,0,-2.4432,-2.4433,0,-2.4483,-2.4483,-2.4484,-2.4449,-2.4448,-2.4446,-2.4445,-2.4494,-2.4497,-2.45,0,0,0,0,0,0,0,0,0,0,0,0,0,-2.4303,-2.4306,-2.4432,-2.4433,-2.4433,-2.4483,-2.4483,-2.4484,-2.4449,-2.4447,-2.4446,-2.4444,-2.4494,-2.4497,-2.45,0,0,0,0,0,0,0,0,0,0,0,0,0,-2.4357,-2.4307,-2.4432,-2.4422,-2.4422,-2.4482,-2.4483,-2.4484,-2.445,-2.4447,-2.4445,-2.4443,-2.4492,-2.4496,-2.4501,-2.4573,0,0,-2.4513,-2.4515,0,0,0,0,0,0,0,0,-2.4354,-2.4362,-2.4423,-2.4423,-2.4423,-2.4457,-2.4456,-2.4514,-2.445,-2.4439,-2.4444,-2.4442,-2.4484,-2.4489,-2.4503,-2.4576,-2.4578,-2.4514,-2.4516,-2.4518,-2.4519,0,0,0,0,0,0,0,-2.435,-2.4359,-2.4452,-2.4424,-2.4424,-2.4414,-2.4419,-2.4467,-2.4474,-2.444,-2.4437,-2.4444,-2.4483,-2.4499,-2.4504,-2.4579,-2.4514,-2.4517,-2.452,-2.4522,-2.4711,-2.4714,0,0,0,0,0,0,-2.4348,-2.4356,-2.445,-2.4453,-2.4382,-2.4419,-2.4424,-2.4448,-2.4473,-2.4475,-2.4446,-2.4442,-2.4493,-2.4499,-2.4506,-2.4591,-2.4518,-2.4522,-2.4524,-2.4709,-2.4712,-2.4715,0,0,0,0,0,0,-2.4345,-2.4356,-2.4448,-2.4404,-2.4415,-2.4423,-2.4451,-2.4451,-2.4466,-2.4478,-2.4479,-2.4461,-2.4492,-2.45,-2.4556,-2.4592,-2.4524,-2.4528,-2.4706,-2.471,-2.4713,-2.4763,0,0,0,0,0,0,-2.4342,-2.4356,-2.4384,-2.4405,-2.4418,-2.4499,-2.4453,-2.4453,-2.4474,-2.447,-2.4492,-2.4494,-2.449,-2.455,-2.4561,-2.4597,-2.4531,-2.4703,-2.4708,-2.4712,-2.4758,-2.4768,-2.4776,0,0,0,0,0,-2.4337,-2.4396,-2.4386,-2.4397,-2.4454,-2.4501,-2.4508,-2.4504,-2.4477,-2.4505,-2.4512,-2.4493,-2.4587,-2.4557,-2.4568,-2.4605,-2.47,-2.4706,-2.4712,-2.4754,-2.4766,-2.4776,0,0,0,0,0,0,-2.4378,-2.4398,-2.4387,-2.4455,-2.4477,-2.4495,-2.453,-2.4517,-2.4546,-2.4541,-2.4533,-2.4539,-2.4597,-2.4607,-2.4573,-2.4676,-2.4639,-2.4647,-2.4667,-2.4679,-2.4688,-2.4683,-2.4534,0,0,0,0,0,-2.4395,-2.4433,-2.4448,-2.4507,-2.4518,-2.4523,-2.4543,-2.4538,-2.456,-2.4569,-2.458,-2.4601,-2.4635,-2.4658,-2.469,-2.476,-2.4763,-2.4791,-2.48,-2.4808,-2.4814,-2.485,-2.4862,-2.4733,-2.4733,-2.4733,0,0,-2.443,-2.4446,-2.447,-2.4515,-2.4531,-2.4569,-2.453,-2.4573,-2.4601,-2.4575,-2.4628,-2.4638,-2.4661,-2.4724,-2.4752,-2.4734,-2.4851,-2.4815,-2.4821,-2.4823,-2.4857,-2.4869,-2.488,-2.4737,-2.4736,-2.4736,0,0,-2.4513,-2.453,-2.458,-2.4597,-2.4622,-2.4624,-2.4636,-2.4657,-2.4662,-2.4716,-2.4697,-2.473,-2.479,-2.4806,-2.4823,-2.4912,-2.4895,-2.4923,-2.497,-2.5005,-2.5015,-2.5024,-2.5054,-2.5065,-2.493,-2.493,-2.493,0,-2.4554,-2.4611,-2.4607,-2.465,-2.467,-2.4649,-2.4698,-2.4714,-2.4749,-2.4762,-2.4742,-2.4815,-2.4829,-2.4895,-2.4917,-2.4932,-2.4944,-2.492,-2.5014,-2.5023,-2.5031,-2.506,-2.5071,-2.4933,-2.4933,-2.4933,-2.4932,0,-2.4659,-2.4699,-2.4736,-2.4769,-2.4793,-2.4839,-2.4841,-2.4865,-2.4858,-2.4862,-2.4917,-2.4934,-2.4968,-2.4984,-2.4977,-2.5048,-2.5036,-2.5015,-2.4977,-2.5047,-2.5073,-2.5084,-2.4938,-2.4937,-2.4936,-2.4935,0,0,-2.4768,-2.4798,-2.4812,-2.4826,-2.4852,-2.4883,-2.4928,-2.4962,-2.4982,-2.5007,-2.5043,-2.5094,-2.5074,-2.5093,-2.5088,-2.5119,-2.5186,-2.5094,-2.5094,-2.5109,-2.5264,-2.5278,-2.529,-2.5176,-2.5178,-2.518,-2.5261,0,-2.4851,-2.493,-2.4926,-2.4999,-2.5035,-2.5016,-2.5055,-2.5074,-2.508,-2.5111,-2.5116,-2.5152,-2.5124,-2.5135,-2.5165,-2.5172,-2.5217,-2.5166,-2.5208,-2.5209,-2.5201,-2.5305,-2.532,-2.5395,-2.5271,-2.5273,-2.5275,0,-2.4958,-2.4986,-2.5063,-2.5082,-2.5097,-2.5133,-2.5163,-2.5193,-2.5215,-2.5216,-2.5237,-2.5227,-2.5271,-2.5234,-2.5294,-2.5259,-2.5276,-2.5282,-2.5285,-2.5287,-2.5245,-2.5307,-2.542,-2.543,-2.5291,-2.529,-2.5289,0,-2.5028,-2.5085,-2.5137,-2.5151,-2.5176,-2.52,-2.5212,-2.5231,-2.5251,-2.5278,-2.5291,-2.5322,-2.5339,-2.5363,-2.5361,-2.5335,-2.5421,-2.5384,-2.5422,-2.5422,-2.544,-2.5438,-2.5554,-2.5455,-2.5454,-2.5454,-2.5454,0,-2.512,-2.5167,-2.5169,-2.5201,-2.5253,-2.5249,-2.53,-2.5308,-2.5326,-2.5358,-2.5344,-2.5375,-2.5372,-2.5403,-2.5402,-2.545,-2.5458,-2.546,-2.5459,-2.546,-2.5459,-2.5469,-2.5463,-2.5457,-2.5457,-2.5456,-2.5456,0,-2.5205,-2.5209,-2.5265,-2.5284,-2.529,-2.5327,-2.5342,-2.5372,-2.5377,-2.5418,-2.5428,-2.5434,-2.547,-2.5471,-2.5512,-2.5511,-2.557,-2.5564,-2.5562,-2.556,-2.5597,-2.5593,-2.5722,-2.5738,-2.563,-2.5631,-2.5632,0,-2.5263,-2.5298,-2.5321,-2.5342,-2.5355,-2.5389,-2.541,-2.5407,-2.5429,-2.5456,-2.5482,-2.5517,-2.5544,-2.5601,-2.5609,-2.564,-2.5633,-2.5676,-2.5637,-2.5637,-2.5631,-2.5628,-2.5631,-2.5683,-2.5684,-2.5685,-2.5686,0,-2.5363,-2.5363,-2.5394,-2.5425,-2.545,-2.5474,-2.5497,-2.5515,-2.5514,-2.554,-2.5576,-2.5597,-2.5638,-2.5672,-2.5702,-2.5712,-2.5699,-2.5699,-2.5709,-2.5709,-2.5706,-2.5706,-2.558,-2.5695,-2.5694,-2.5694,-2.5693,-2.5693,-2.5435,-2.5465,-2.5486,-2.552,-2.5536,-2.5558,-2.5586,-2.5594,-2.5625,-2.5658,-2.5655,-2.5695,-2.5714,-2.5753,-2.5767,-2.5797,-2.5782,-2.5797,-2.58,-2.5803,-2.5806,-2.5703,-2.5803,-2.5802,-2.5802,-2.5802,-2.5802,0,-2.5533,-2.5545,-2.5577,-2.5609,-2.5635,-2.5621,-2.5645,-2.5668,-2.5703,-2.5723,-2.575,-2.5791,-2.5824,-2.5834,-2.5865,-2.5887,-2.5882,-2.5895,-2.5893,-2.5895,-2.5819,-2.5806,-2.5899,-2.5899,-2.5899,-2.5899,-2.5899,-2.5899,-2.5587,-2.5637,-2.5639,-2.5696,-2.5708,-2.5747,-2.5762,-2.5781,-2.5796,-2.5843,-2.587,-2.5877,-2.5892,-2.5924,-2.5953,-2.5955,-2.5966,-2.5982,-2.5982,-2.591,-2.59,-2.5891,-2.5879,-2.5985,-2.5985,-2.6054,-2.6055,-2.6056]},{"header":{"parameterUnit":"m.s-1","parameterCategory":1,"la1":30.2991,"la2":30.254,"lo1":-89.0895,"lo2":-89.0444,"dx":0.0017,"dy":0.0017,"nx":28,"ny":28,"refTime":"2023-01-14T03:00:00:Z","depth":0,"parameterNumber":3,"parameterNumberName":"V-component_of_WINDS"},"data":[0,0,0,0,0,0,0,0,0,0,0,0,0,0,0,0,0,0,0,0,0,0,0,0,0,0,0,0,0,0,0,0,0,0,0,0,0,0,0,0,0,0,0,0,0,0,0,0,0,0,0,0,0,0,0,0,0,0,-1.6139,-1.614,0,-1.6208,-1.6209,-1.621,-1.622,-1.6219,-1.6219,-1.6218,-1.6289,-1.6292,-1.6294,0,0,0,0,0,0,0,0,0,0,0,0,0,-1.6014,-1.6017,-1.6139,-1.614,-1.6141,-1.6208,-1.6209,-1.621,-1.622,-1.6219,-1.6218,-1.6218,-1.6288,-1.6291,-1.6294,0,0,0,0,0,0,0,0,0,0,0,0,0,-1.6075,-1.6017,-1.6139,-1.6154,-1.6156,-1.6208,-1.6209,-1.621,-1.622,-1.6219,-1.6218,-1.6217,-1.6287,-1.6291,-1.6295,-1.6337,0,0,-1.6306,-1.6308,0,0,0,0,0,0,0,0,-1.6071,-1.6079,-1.6151,-1.6153,-1.6155,-1.6204,-1.6191,-1.6253,-1.622,-1.6196,-1.6218,-1.6217,-1.6262,-1.6268,-1.6283,-1.634,-1.6343,-1.6306,-1.6309,-1.631,-1.6311,0,0,0,0,0,0,0,-1.6067,-1.6076,-1.6166,-1.6152,-1.6154,-1.6157,-1.6164,-1.6203,-1.6233,-1.6198,-1.6199,-1.6207,-1.6263,-1.6279,-1.6284,-1.6344,-1.6306,-1.631,-1.6312,-1.6313,-1.6439,-1.644,0,0,0,0,0,0,-1.606,-1.6073,-1.6164,-1.6168,-1.611,-1.616,-1.6168,-1.619,-1.6233,-1.6239,-1.6208,-1.6207,-1.6273,-1.628,-1.6287,-1.6339,-1.631,-1.6314,-1.6316,-1.6438,-1.6439,-1.6441,0,0,0,0,0,0,-1.6057,-1.6068,-1.6161,-1.6121,-1.6133,-1.6163,-1.6187,-1.6191,-1.6208,-1.624,-1.6246,-1.6219,-1.6273,-1.6282,-1.6324,-1.6341,-1.6315,-1.6319,-1.6437,-1.6438,-1.644,-1.6442,0,0,0,0,0,0,-1.6054,-1.6067,-1.6084,-1.6121,-1.6135,-1.6198,-1.6188,-1.6194,-1.6214,-1.6214,-1.6252,-1.6257,-1.6273,-1.6319,-1.6328,-1.6346,-1.6322,-1.6435,-1.6438,-1.6439,-1.6441,-1.6444,-1.6447,0,0,0,0,0,-1.6049,-1.6082,-1.6084,-1.6095,-1.6156,-1.6199,-1.6206,-1.6223,-1.6215,-1.6232,-1.6253,-1.6256,-1.6338,-1.6323,-1.6333,-1.6353,-1.6434,-1.6437,-1.6439,-1.644,-1.6443,-1.6447,0,0,0,0,0,0,-1.6046,-1.6087,-1.609,-1.6136,-1.6164,-1.62,-1.6222,-1.6227,-1.6257,-1.6256,-1.6276,-1.6284,-1.6325,-1.6344,-1.6326,-1.6396,-1.6385,-1.639,-1.6382,-1.6386,-1.6389,-1.6383,-1.6325,0,0,0,0,0,-1.605,-1.6081,-1.6116,-1.6152,-1.6166,-1.6191,-1.6211,-1.6221,-1.625,-1.6262,-1.6286,-1.6315,-1.6347,-1.6367,-1.6399,-1.6444,-1.6452,-1.6462,-1.6465,-1.6467,-1.6471,-1.6495,-1.65,-1.6449,-1.6449,-1.6449,0,0,-1.606,-1.6086,-1.6104,-1.6152,-1.6175,-1.6206,-1.6201,-1.6235,-1.6258,-1.6267,-1.6309,-1.6327,-1.636,-1.6404,-1.6425,-1.642,-1.6487,-1.647,-1.6472,-1.6474,-1.6498,-1.6503,-1.6508,-1.645,-1.645,-1.645,0,0,-1.6093,-1.6116,-1.6149,-1.6172,-1.6206,-1.6223,-1.6231,-1.6266,-1.6279,-1.6321,-1.6328,-1.6356,-1.6411,-1.6434,-1.6453,-1.6495,-1.6499,-1.6504,-1.6519,-1.6542,-1.6546,-1.655,-1.6564,-1.6569,-1.6508,-1.6508,-1.6508,0,-1.61,-1.6148,-1.6165,-1.6199,-1.6219,-1.6229,-1.6262,-1.6283,-1.6326,-1.634,-1.6335,-1.6403,-1.6426,-1.6475,-1.6485,-1.6501,-1.651,-1.65,-1.6544,-1.6548,-1.6552,-1.6566,-1.6571,-1.6508,-1.6508,-1.6508,-1.6508,0,-1.6155,-1.6188,-1.621,-1.6251,-1.6274,-1.6307,-1.6329,-1.6351,-1.6359,-1.6376,-1.6419,-1.6446,-1.6483,-1.6496,-1.6505,-1.6546,-1.6542,-1.654,-1.6531,-1.6557,-1.657,-1.6576,-1.6509,-1.6509,-1.6509,-1.6509,0,0,-1.6188,-1.6238,-1.6245,-1.6264,-1.6302,-1.6328,-1.6361,-1.6397,-1.6415,-1.6444,-1.6472,-1.6518,-1.6516,-1.6538,-1.6549,-1.657,-1.66,-1.6566,-1.6567,-1.6571,-1.6647,-1.6647,-1.6653,-1.6603,-1.6605,-1.6605,-1.6644,0,-1.6225,-1.6284,-1.6301,-1.6351,-1.6381,-1.6391,-1.642,-1.6446,-1.6463,-1.6491,-1.651,-1.6542,-1.6538,-1.6551,-1.6572,-1.6592,-1.6616,-1.659,-1.6629,-1.6631,-1.662,-1.666,-1.6661,-1.6696,-1.6649,-1.665,-1.6651,0,-1.6276,-1.6306,-1.6359,-1.6393,-1.6406,-1.6432,-1.6466,-1.6493,-1.6523,-1.6534,-1.6557,-1.6567,-1.6602,-1.659,-1.6638,-1.662,-1.6637,-1.665,-1.6651,-1.6655,-1.6642,-1.6665,-1.6708,-1.6713,-1.6659,-1.6659,-1.6658,0,-1.6294,-1.6347,-1.6386,-1.6401,-1.6442,-1.646,-1.6478,-1.6507,-1.6527,-1.6557,-1.657,-1.6604,-1.6622,-1.6648,-1.6666,-1.6656,-1.6712,-1.6702,-1.6721,-1.6721,-1.6732,-1.6731,-1.6778,-1.6744,-1.6744,-1.6744,-1.6744,0,-1.6333,-1.6365,-1.6394,-1.6418,-1.6454,-1.6472,-1.6507,-1.6526,-1.6552,-1.6579,-1.6589,-1.6614,-1.6637,-1.6665,-1.668,-1.6717,-1.6725,-1.6735,-1.6738,-1.6733,-1.6732,-1.6745,-1.6742,-1.6746,-1.6745,-1.6745,-1.6745,0,-1.6359,-1.6379,-1.6422,-1.6457,-1.6467,-1.6491,-1.6521,-1.6545,-1.6562,-1.6596,-1.6605,-1.6632,-1.6666,-1.6686,-1.6729,-1.6739,-1.678,-1.6782,-1.6769,-1.6771,-1.6789,-1.6786,-1.6845,-1.6853,-1.6814,-1.6815,-1.6815,0,-1.6382,-1.6407,-1.6444,-1.6463,-1.6481,-1.6512,-1.6532,-1.6552,-1.6573,-1.6609,-1.6627,-1.6662,-1.669,-1.6744,-1.6767,-1.68,-1.6803,-1.6821,-1.6808,-1.6802,-1.6803,-1.6801,-1.6803,-1.6823,-1.6824,-1.6824,-1.6824,0,-1.6421,-1.643,-1.646,-1.6493,-1.6517,-1.6544,-1.6571,-1.6586,-1.6609,-1.6632,-1.6667,-1.6689,-1.6733,-1.6766,-1.6801,-1.682,-1.6826,-1.6828,-1.6834,-1.6829,-1.6821,-1.6825,-1.6775,-1.6827,-1.6826,-1.6826,-1.6826,-1.6826,-1.6446,-1.6468,-1.6498,-1.653,-1.6552,-1.6577,-1.66,-1.662,-1.6649,-1.6686,-1.6696,-1.6732,-1.6761,-1.6808,-1.6827,-1.6856,-1.6853,-1.6862,-1.6864,-1.6866,-1.6866,-1.6816,-1.6862,-1.6862,-1.6862,-1.6862,-1.6862,0,-1.6485,-1.6504,-1.6534,-1.6571,-1.6596,-1.66,-1.663,-1.6651,-1.6682,-1.6709,-1.6737,-1.6776,-1.6809,-1.6835,-1.6868,-1.6886,-1.689,-1.6894,-1.6893,-1.6897,-1.6867,-1.6858,-1.6891,-1.6891,-1.6891,-1.6891,-1.6891,-1.6891,-1.6508,-1.6546,-1.6558,-1.6607,-1.6626,-1.6661,-1.6678,-1.6701,-1.6722,-1.6766,-1.6793,-1.6809,-1.6836,-1.6871,-1.6902,-1.6908,-1.692,-1.6924,-1.6931,-1.6902,-1.6899,-1.6896,-1.6888,-1.6926,-1.6926,-1.6959,-1.6959,-1.6959]}]]